Weather History for Andalusia, AL

Change the Weather History Date:

Saturday, October 27, 2012

  Actual Average (KCEW) Record (KCEW)
Temperature  
Mean Temperature 60 °F -  
Max Temperature 68 °F 77 °F 87 °F (2010)
Min Temperature 53 °F 46 °F 33 °F (1982)
Degree Days  
Heating Degree Days 4    
Growing Degree Days 10 (Base 50)    
Moisture  
Dew Point 51 °F    
Average Humidity 76    
Maximum Humidity 84    
Minimum Humidity 67    
Precipitation  
Precipitation 0.00 in - - ()
Sea Level Pressure  
Sea Level Pressure 29.89 in    
Wind  
Wind Speed 11 mph (North)    
Max Wind Speed 16 mph    
Max Gust Speed 22 mph    
Visibility 8 miles    
Events      
Averages and records for this station are not official NWS values.
T = Trace of Precipitation, MM = Missing Value Source: NWS Daily Summary

Daily Weather History Graph

Daily Weather History Graph

Search for Another Location

Airport:

Trip Planner

Search our weather history database for the weather conditions in past years. The results will help you decide how hot, cold, wet, or windy it might be!

Date:

Astronomy

Oct. 27, 2012 Rise Set
Actual Time 6:57 AM CDT 6:00 PM CDT
Civil Twilight 6:32 AM CDT 6:25 PM CDT
Nautical Twilight 6:04 AM CDT 6:54 PM CDT
Astronomical Twilight 5:35 AM CDT 7:22 PM CDT
Moon 4:42 PM CDT (10/27) 4:57 AM CDT (10/27)
Length of Visible Light 11h 52m
Length of Day
11h 03m
Waxing Gibbous, 96% of the Moon is Illuminated
Oct 27
Waxing Gibbous
Oct 29
Full
Nov 6
Last Quarter
Nov 13
New
Nov 20
First Quarter

Hourly Weather History & Observations

Time (CDT) Temp. Dew Point Humidity Pressure Visibility Wind Dir Wind Speed Gust Speed Precip Events Conditions
12:56 AM 68.0 °F 60.1 °F 76% 29.87 in 10.0 mi NNE 8.1 mph - N/A   Clear
1:56 AM 66.9 °F 61.0 °F 81% 29.87 in 8.0 mi North 8.1 mph - N/A   Clear
2:28 AM 66.2 °F 60.8 °F 83% 29.87 in 7.0 mi North 11.5 mph - N/A   Partly Cloudy
2:54 AM 66.2 °F 60.8 °F 83% 29.87 in 7.0 mi North 11.5 mph - N/A   Mostly Cloudy
2:56 AM 66.0 °F 61.0 °F 84% 29.86 in 7.0 mi North 13.8 mph - N/A   Mostly Cloudy
3:56 AM 64.9 °F 59.0 °F 81% 29.86 in 8.0 mi North 11.5 mph - N/A   Overcast
4:56 AM 61.0 °F 55.0 °F 81% 29.88 in 9.0 mi North 13.8 mph - N/A   Overcast
5:56 AM 59.0 °F 52.0 °F 78% 29.89 in 9.0 mi North 13.8 mph 20.7 mph N/A   Overcast
6:56 AM 57.9 °F 52.0 °F 81% 29.91 in 8.0 mi North 10.4 mph - N/A   Overcast
7:56 AM 57.9 °F 51.1 °F 78% 29.92 in 6.0 mi North 11.5 mph - N/A   Haze
8:56 AM 57.9 °F 50.0 °F 75% 29.92 in 7.0 mi North 12.7 mph - N/A   Overcast
9:56 AM 57.9 °F 50.0 °F 75% 29.93 in 6.0 mi NNW 12.7 mph 19.6 mph N/A   Haze
10:56 AM 57.9 °F 48.9 °F 72% 29.93 in 7.0 mi North 13.8 mph - N/A   Overcast
11:04 AM 57.2 °F 48.2 °F 72% 29.93 in 7.0 mi North 8.1 mph - N/A   Overcast
11:56 AM 60.1 °F 48.9 °F 67% 29.91 in 8.0 mi NNW 11.5 mph - N/A   Overcast
12:56 PM 60.1 °F 50.0 °F 69% 29.89 in 9.0 mi North 13.8 mph - N/A   Overcast
1:56 PM 60.1 °F 48.9 °F 67% 29.86 in 9.0 mi North 13.8 mph 21.9 mph N/A   Overcast
2:56 PM 60.1 °F 48.9 °F 67% 29.85 in 10.0 mi NNW 16.1 mph 20.7 mph N/A   Overcast
3:56 PM 59.0 °F 48.9 °F 69% 29.85 in 10.0 mi NNW 15.0 mph - N/A   Overcast
4:56 PM 57.0 °F 48.0 °F 72% 29.86 in 10.0 mi NNW 12.7 mph - N/A   Overcast
5:56 PM 55.0 °F 48.0 °F 77% 29.87 in 10.0 mi North 15.0 mph - N/A   Overcast
6:56 PM 54.0 °F 48.0 °F 80% 29.89 in 8.0 mi North 9.2 mph - N/A   Overcast
7:56 PM 54.0 °F 46.9 °F 77% 29.90 in 9.0 mi North 12.7 mph 19.6 mph N/A   Overcast
8:14 PM 53.6 °F 46.4 °F 77% 29.91 in 10.0 mi North 9.2 mph - N/A   Overcast
8:56 PM 54.0 °F 46.9 °F 77% 29.91 in 10.0 mi North 13.8 mph - N/A   Overcast
9:56 PM 54.0 °F 46.9 °F 77% 29.90 in 10.0 mi North 12.7 mph - N/A   Overcast
10:56 PM 54.0 °F 46.0 °F 75% 29.89 in 10.0 mi North 15.0 mph - N/A   Overcast
11:56 PM 54.0 °F 46.0 °F 75% 29.88 in 10.0 mi North 9.2 mph - N/A   Overcast